DW4212 La Cabrera ES current weather conditions

sailwx.info

Wind from 192

Air temperature 14.4° C
Dewpoint 8.6° C

Last reported at 2014-Sep-15 23:49 UTC.
Time now 2014-Sep-16 00:57 UTC

Location: N 40°53' W 003°35'.
View on Google Maps.

See reports from other nearby stations

  
Tides and Currents Weather Stations Pressure Air Temp Water Temp Dewpoint Dewpoint Depression Visibility Wind Speed Wind Dir Waves Ship Positions
date/time (UTC)wind fromknots sea level pressurealtimeterstation pressurevisibilityair tempwater tempwave heightnotes
2014-Sep-15 23:49 192 14.4
2014-Sep-15 23:39 192 14.4
2014-Sep-15 23:29 192 14.4
2014-Sep-15 23:19 192 15.0
2014-Sep-15 23:09 192 15.0
2014-Sep-15 22:59 192 15.0
2014-Sep-15 22:49 192 15.0
2014-Sep-15 22:39 192 15.0
2014-Sep-15 22:29 192 15.0
2014-Sep-15 22:19 192 15.0
2014-Sep-15 22:09 192 15.0
2014-Sep-15 21:59 192 15.6
2014-Sep-15 21:49 192 15.6
2014-Sep-15 21:39 192 15.6
2014-Sep-15 21:29 192 16.1
2014-Sep-15 21:19 192 16.1
2014-Sep-15 21:09 192 16.1
2014-Sep-15 20:59 192 16.1
2014-Sep-15 20:49 192 16.1
2014-Sep-15 20:39 192 16.7
2014-Sep-15 20:29 192 16.7
2014-Sep-15 20:19 192 16.7
2014-Sep-15 20:09 192 17.2
2014-Sep-15 19:59 192 17.2
2014-Sep-15 19:49 192 17.2
2014-Sep-15 19:39 192 17.8
2014-Sep-15 19:29 192 18.3
2014-Sep-15 19:19 192 18.3
2014-Sep-15 19:09 192 18.9
2014-Sep-15 18:59 192 18.9
2014-Sep-15 18:49 192 19.4
2014-Sep-15 18:39 192 19.4
2014-Sep-15 18:29 192 19.4
2014-Sep-15 18:19 188 20.0
2014-Sep-15 18:09 209 0 gusting 5 20.0
2014-Sep-15 17:59 205 0 gusting 5 20.6
2014-Sep-15 17:49 194 0 gusting 4 20.6
2014-Sep-15 17:39 217 1 gusting 6 21.1
2014-Sep-15 17:29 182 21.1
2014-Sep-15 17:19 196 0 gusting 6 21.7
2014-Sep-15 17:09 248 0 gusting 4 21.7
2014-Sep-15 16:59 192 0 gusting 6 22.2
2014-Sep-15 16:49 195 0 gusting 7 22.2
2014-Sep-15 16:39 196 0 gusting 6 22.2
2014-Sep-15 16:29 188 22.2
2014-Sep-15 16:19 180 0 gusting 6 22.8
2014-Sep-15 16:09 222 1 gusting 6 23.3
2014-Sep-15 15:59 229 0 gusting 6 22.8
2014-Sep-15 15:49 212 1 gusting 6 23.3
2014-Sep-15 15:29 237 1 gusting 6 23.9
2014-Sep-15 15:19 223 0 gusting 6 23.3
2014-Sep-15 15:09 145 3 gusting 6 23.3
2014-Sep-15 14:59 138 2 gusting 7 23.9
2014-Sep-15 14:49 233 1 gusting 6 24.4
2014-Sep-15 14:39 198 2 gusting 9 23.3
2014-Sep-15 14:19 189 2 gusting 6 22.8
2014-Sep-15 14:09 180 1 gusting 7 22.8
2014-Sep-15 13:59 193 2 gusting 7 22.8
2014-Sep-15 13:49 192 1 gusting 6 22.2
2014-Sep-15 13:39 175 3 gusting 12 22.2
2014-Sep-15 13:29 178 1 gusting 7 22.8
2014-Sep-15 13:19 184 4 gusting 6 22.8
2014-Sep-15 13:09 277 1 gusting 8 22.8
2014-Sep-15 12:59 175 0 gusting 7 22.2
2014-Sep-15 12:49 194 2 gusting 7 22.2
2014-Sep-15 12:39 196 1 gusting 7 21.7
2014-Sep-15 12:29 175 3 gusting 7 21.7
2014-Sep-15 12:19 192 1 gusting 9 21.7
2014-Sep-15 12:09 157 2 gusting 8 21.7
2014-Sep-15 11:59 222 2 gusting 9 21.1
2014-Sep-15 11:49 208 1 gusting 6 20.6
2014-Sep-15 11:39 071 1 gusting 10 20.6
2014-Sep-15 11:29 184 2 gusting 8 20.0
2014-Sep-15 11:19 195 1 gusting 6 19.4
2014-Sep-15 11:09 195 18.9
2014-Sep-15 10:59 218 1 gusting 6 18.3
2014-Sep-15 10:49 202 0 gusting 3 18.9
2014-Sep-15 10:39 195 18.9
2014-Sep-15 10:29 215 1 gusting 4 19.4
2014-Sep-15 10:19 258 1 gusting 6 20.0
2014-Sep-15 10:09 229 0 gusting 4 20.0
2014-Sep-15 09:59 209 20.6
2014-Sep-15 09:49 227 0 gusting 6 19.4
2014-Sep-15 09:39 244 0 gusting 6 19.4
2014-Sep-15 09:29 199 284 gusting 284 19.4
2014-Sep-15 09:19 184 18.3
2014-Sep-15 09:09 207 1 gusting 6 18.3
2014-Sep-15 08:59 181 1 gusting 6 18.3
2014-Sep-15 08:49 173 18.3
2014-Sep-15 08:39 180 17.8
2014-Sep-15 08:29 180 0 gusting 6 17.8
2014-Sep-15 08:19 177 0 gusting 5 17.8
2014-Sep-15 08:09 190 17.2
2014-Sep-15 07:59 171 0 gusting 1 16.7
2014-Sep-15 07:49 167 16.1
2014-Sep-15 07:39 100 15.6
2014-Sep-15 07:29 100 14.4
2014-Sep-15 07:19 338 14.4
2014-Sep-15 07:09 338 13.9
2014-Sep-15 06:59 338 13.3
2014-Sep-15 06:49 338 12.8
2014-Sep-15 06:39 338 12.2
2014-Sep-15 06:29 338 12.2
2014-Sep-15 06:19 338 12.2
2014-Sep-15 06:09 338 12.2
2014-Sep-15 05:59 338 12.2
2014-Sep-15 05:49 338 12.2
2014-Sep-15 05:39 338 12.2
2014-Sep-15 05:29 348 12.2
2014-Sep-15 05:19 350 0 gusting 5 12.8
2014-Sep-15 05:09 280 12.8
2014-Sep-15 04:59 297 12.8
2014-Sep-15 04:49 305 12.8
2014-Sep-15 04:39 360 2 gusting 5 12.8
2014-Sep-15 04:29 349 2 gusting 6 12.8
2014-Sep-15 04:19 355 1 gusting 5 12.8
2014-Sep-15 04:09 349 1 gusting 6 12.8
2014-Sep-15 03:59 355 3 gusting 8 12.8
2014-Sep-15 03:49 355 5 gusting 6 13.3
2014-Sep-15 03:39 351 13.3
2014-Sep-15 03:29 360 1 gusting 4 13.3
2014-Sep-15 03:19 351 2 gusting 6 13.3
2014-Sep-15 03:09 360 3 gusting 6 13.3
2014-Sep-15 02:59 009 13.9
2014-Sep-15 02:49 360 0 gusting 4 13.9
2014-Sep-15 02:39 196 13.9
2014-Sep-15 02:29 196 14.4
2014-Sep-15 02:19 246 14.4
2014-Sep-15 02:09 247 1 gusting 6 14.4
2014-Sep-15 01:59 221 2 gusting 6 14.4
2014-Sep-15 01:49 250 2 gusting 7 15.0
2014-Sep-15 01:39 230 2 gusting 6 15.0
2014-Sep-15 01:29 355 15.0
2014-Sep-15 01:19 355 15.0
2014-Sep-15 01:09 355 15.6
2014-Sep-15 00:59 355 15.6
2014-Sep-15 00:49 355 16.1
2014-Sep-15 00:39 355 16.1
2014-Sep-15 00:29 355 16.1
2014-Sep-15 00:19 355 16.1
2014-Sep-15 00:09 355 16.7
2014-Sep-14 23:59 355 16.7
2014-Sep-14 23:49 355 16.7
2014-Sep-14 23:39 355 16.7
2014-Sep-14 23:29 355 16.7
2014-Sep-14 23:19 355 0 gusting 2 16.7
2014-Sep-14 23:09 355 0 gusting 4 16.7
2014-Sep-14 22:59 355 1 gusting 4 16.7
2014-Sep-14 22:49 355 0 gusting 3 16.7
2014-Sep-14 22:39 355 1 gusting 3 16.7
2014-Sep-14 22:29 355 0 gusting 2 16.7
2014-Sep-14 22:19 355 16.7
2014-Sep-14 22:09 010 0 gusting 3 16.7
2014-Sep-14 21:59 360 0 gusting 3 16.7
2014-Sep-14 21:49 005 0 gusting 3 16.7
2014-Sep-14 21:39 347 16.7
2014-Sep-14 21:29 360 0 gusting 5 17.2
2014-Sep-14 21:19 360 0 gusting 6 17.2
2014-Sep-14 21:09 360 4 gusting 8 17.8
2014-Sep-14 20:59 336 0 gusting 7 17.8
2014-Sep-14 20:49 360 2 gusting 6 18.3
2014-Sep-14 20:39 355 2 gusting 6 18.3
2014-Sep-14 20:29 020 1 gusting 5 18.9
2014-Sep-14 20:19 252 19.4
2014-Sep-14 20:09 259 1 gusting 6 19.4
2014-Sep-14 19:59 236 1 gusting 6 20.0
2014-Sep-14 19:49 244 2 gusting 6 20.0
2014-Sep-14 19:39 248 2 gusting 6 20.0
2014-Sep-14 19:29 246 20.0
2014-Sep-14 19:19 241 2 gusting 6 20.6
2014-Sep-14 19:09 248 1 gusting 6 20.6
2014-Sep-14 18:59 254 0 gusting 6 20.6
2014-Sep-14 18:49 249 1 gusting 6 21.1
2014-Sep-14 18:39 261 4 gusting 8 21.1
2014-Sep-14 18:29 248 1 gusting 8 21.7
2014-Sep-14 18:19 242 0 gusting 6 22.2
2014-Sep-14 18:09 234 22.2
2014-Sep-14 17:59 207 3 gusting 9 22.8
2014-Sep-14 17:49 261 3 gusting 12 23.3
2014-Sep-14 17:39 215 1 gusting 7 23.9
2014-Sep-14 17:29 211 2 gusting 8 23.9
2014-Sep-14 17:19 218 1 gusting 7 24.4
2014-Sep-14 17:09 244 1 gusting 8 25.0
2014-Sep-14 16:59 254 1 gusting 9 25.6
2014-Sep-14 16:49 244 3 gusting 9 25.6
2014-Sep-14 16:39 266 3 gusting 6 25.6
2014-Sep-14 16:29 187 1 gusting 6 26.1
2014-Sep-14 16:19 254 2 gusting 10 26.1
2014-Sep-14 16:09 217 0 gusting 9 26.1
2014-Sep-14 15:59 245 3 gusting 13 26.1
2014-Sep-14 15:49 165 0 gusting 8 26.1
2014-Sep-14 15:39 083 2 gusting 10 25.6
2014-Sep-14 15:29 240 3 gusting 13 25.6
2014-Sep-14 15:19 228 4 gusting 7 26.1
2014-Sep-14 15:09 271 2 gusting 8 26.7
2014-Sep-14 14:59 223 1 gusting 11 26.7
2014-Sep-14 14:49 264 2 gusting 8 26.7
2014-Sep-14 14:29 250 1 gusting 13 27.2
2014-Sep-14 14:19 216 2 gusting 13 27.2
2014-Sep-14 14:09 200 3 gusting 13 26.7
2014-Sep-14 13:59 244 0 gusting 14 26.1
2014-Sep-14 13:49 209 1 gusting 11 27.2
2014-Sep-14 13:39 277 2 gusting 11 26.7
2014-Sep-14 13:29 126 1 gusting 11 26.1
2014-Sep-14 13:19 148 5 gusting 13 26.7
2014-Sep-14 13:09 186 2 gusting 11 26.7
2014-Sep-14 12:59 187 0 gusting 8 26.7
2014-Sep-14 12:49 031 2 gusting 6 26.7
2014-Sep-14 12:39 287 4 gusting 8 26.1
2014-Sep-14 12:29 213 26.7
2014-Sep-14 12:19 258 2 gusting 12 26.7
2014-Sep-14 12:09 150 4 gusting 16 26.7
2014-Sep-14 11:59 250 5 gusting 13 26.1
2014-Sep-14 11:49 202 3 gusting 9 26.1
2014-Sep-14 11:39 260 1 gusting 7 25.6
2014-Sep-14 11:29 265 4 gusting 11 25.0
2014-Sep-14 11:19 178 3 gusting 12 25.0
2014-Sep-14 11:09 107 3 gusting 10 24.4
2014-Sep-14 10:59 193 3 gusting 9 23.9
2014-Sep-14 10:49 169 4 gusting 12 23.9
2014-Sep-14 10:39 185 6 gusting 11 23.9
2014-Sep-14 10:29 139 1 gusting 10 24.4
2014-Sep-14 10:19 213 1 gusting 6 23.9
2014-Sep-14 10:09 191 1 gusting 6 23.9
2014-Sep-14 09:59 188 4 gusting 10 23.3
2014-Sep-14 09:49 210 0 gusting 6 23.9
2014-Sep-14 09:39 201 0 gusting 6 23.3
2014-Sep-14 09:29 215 0 gusting 5 23.3
2014-Sep-14 09:19 194 0 gusting 4 23.3
2014-Sep-14 09:09 193 2 gusting 4 22.8
2014-Sep-14 08:59 211 0 gusting 5 22.2
2014-Sep-14 08:49 151 21.7
2014-Sep-14 08:39 178 1 gusting 5 21.7
2014-Sep-14 08:29 182 0 gusting 3 21.1
2014-Sep-14 08:19 099 20.0
2014-Sep-14 07:59 084 18.9
2014-Sep-14 07:49 080 18.3
2014-Sep-14 07:39 080 17.8
2014-Sep-14 07:29 079 17.8
2014-Sep-14 07:19 079 16.7
2014-Sep-14 07:09 079 16.1
2014-Sep-14 06:59 078 15.6
2014-Sep-14 06:49 005 15.0
2014-Sep-14 06:39 005 15.0
2014-Sep-14 06:29 005 13.9
2014-Sep-14 06:19 005 13.9
2014-Sep-14 06:09 005 13.9
2014-Sep-14 05:59 005 13.9
2014-Sep-14 05:49 005 13.9
2014-Sep-14 05:39 005 13.9
2014-Sep-14 05:29 005 13.9
2014-Sep-14 05:19 005 13.9
2014-Sep-14 05:09 005 13.9
2014-Sep-14 04:59 005 13.9
2014-Sep-14 04:49 005 13.9
2014-Sep-14 04:39 005 14.4
2014-Sep-14 04:29 005 14.4
2014-Sep-14 04:19 005 15.0
2014-Sep-14 04:09 005 15.6
2014-Sep-14 03:59 005 16.7
2014-Sep-14 03:49 005 0 gusting 3 16.7
2014-Sep-14 03:39 005 0 gusting 4 16.1
2014-Sep-14 03:29 005 1 gusting 3 16.1
2014-Sep-14 03:19 005 1 gusting 2 16.1
2014-Sep-14 03:09 005 16.7
2014-Sep-14 02:59 355 16.7
2014-Sep-14 02:49 355 2 gusting 5 16.7
2014-Sep-14 02:39 348 2 gusting 6 17.2
2014-Sep-14 02:29 355 3 gusting 4 17.2
2014-Sep-14 02:19 355 1 gusting 6 16.7
2014-Sep-14 02:09 360 2 gusting 4 16.7
2014-Sep-14 01:59 360 1 gusting 5 16.7
2014-Sep-14 01:49 355 2 gusting 5 17.2
2014-Sep-14 01:39 348 1 gusting 4 17.2
2014-Sep-14 01:29 350 1 gusting 4 16.7
2014-Sep-14 01:19 339 0 gusting 3 16.7
2014-Sep-14 01:09 355 16.1
2014-Sep-14 00:59 309 16.1
2014-Sep-14 00:49 309 0 gusting 1 16.1
2014-Sep-14 00:39 311 16.1
2014-Sep-14 00:29 068 16.1
2014-Sep-14 00:19 069 16.1
2014-Sep-14 00:09 075 2 gusting 5 15.6